User: anonymous   Login
Location: Unspecified
(0.0000°N, 0.0000°E)
Time: 09:20:45
(UTC+02:00)
Language:

Cosmos 1300 - Orbit

View from above orbital plane
View from above orbital plane
View from above satellite
View from above satellite

Ground track
Ground track

The orbit data is extracted from the following two-line orbital elements,

1 12785U 81082A   16241.91903029 +.00001001 +00000-0 +50186-4 0  9995
2 12785 082.5064 002.0929 0002043 128.0196 007.8054 15.16221259907316
Epoch (UTC): 28 August 2016 22:03:24
Eccentricity: 0.0002043
inclination: 82.5064°
perigee height: 516 km
apogee height: 518 km
right ascension of ascending node: 2.0929°
argument of perigee: 128.0196°
revolutions per day: 15.16221259
mean anomaly at epoch: 7.8054°
orbit number at epoch: 90731

The dashed part of the orbit path shows where the satellite is in the earth's shadow,  

DLR